"Gas Day","BTU","CHDP","Wobbe Index","CO2","N2","Gravity","Methane","Ethane","Propane","Ibutane","Nbutane","Ipentane","Npentane","C6+"
"2024-05-01 00:00:00.0","1015.7280","-31.4651","1332.3578","1.3969","0.2817","0.5812","96.3448","1.6972","0.1779","0.0440","0.0280","0.0125","0.0053","0.0116"
"2024-04-30 00:00:00.0","1019.6682","-29.6638","1335.7010","1.2843","0.3663","0.5828","95.9347","2.1034","0.2064","0.0419","0.0315","0.0132","0.0059","0.0125"
"2024-04-29 00:00:00.0","1022.5124","-28.7771","1337.6152","1.2662","0.3724","0.5844","95.6074","2.4288","0.2203","0.0390","0.0327","0.0134","0.0069","0.0128"
"2024-04-28 00:00:00.0","1022.4688","-28.3708","1337.4635","1.2982","0.3341","0.5844","95.6416","2.3937","0.2232","0.0407","0.0336","0.0146","0.0072","0.0130"
"2024-04-27 00:00:00.0","1020.2499","-29.0076","1336.3394","1.3076","0.3062","0.5829","95.9528","2.1221","0.1991","0.0497","0.0306","0.0132","0.0060","0.0128"
"2024-04-26 00:00:00.0","1018.2683","-27.3333","1334.5306","1.3595","0.2811","0.5822","96.1573","1.8917","0.1921","0.0537","0.0309","0.0137","0.0062","0.0139"
"2024-04-25 00:00:00.0","1020.9854","-25.1552","1336.5589","1.3272","0.2931","0.5835","95.8901","2.1504","0.2136","0.0557","0.0336","0.0145","0.0066","0.0152"
"2024-04-24 00:00:00.0","1019.9908","-25.5654","1335.4976","1.3043","0.3679","0.5833","95.8861","2.1109","0.2085","0.0551","0.0322","0.0138","0.0062","0.0150"
"2024-04-23 00:00:00.0","1017.6072","-22.9066","1333.4634","1.3324","0.3757","0.5824","96.0793","1.9094","0.1930","0.0431","0.0305","0.0137","0.0060","0.0170"
"2024-04-22 00:00:00.0","1017.3419","-19.8704","1332.7249","1.4246","0.2830","0.5827","96.1600","1.8096","0.1937","0.0572","0.0317","0.0147","0.0063","0.0192"
"2024-04-21 00:00:00.0","1016.9491","-21.1041","1332.5314","1.4324","0.2684","0.5824","96.2054","1.7811","0.1935","0.0473","0.0322","0.0150","0.0064","0.0182"
"2024-04-20 00:00:00.0","1017.2247","-24.8798","1332.3493","1.4452","0.2772","0.5829","96.1271","1.8287","0.1959","0.0572","0.0321","0.0148","0.0063","0.0154"
"2024-04-19 00:00:00.0","1018.0430","-25.3339","1332.9377","1.4576","0.2490","0.5833","96.0807","1.8737","0.2062","0.0621","0.0340","0.0152","0.0065","0.0150"
"2024-04-18 00:00:00.0","1017.4587","-27.6509","1332.7634","1.4451","0.2546","0.5828","96.1263","1.8577","0.2029","0.0470","0.0322","0.0143","0.0061","0.0136"
"2024-04-17 00:00:00.0","1017.5951","-26.1545","1332.8705","1.4374","0.2638","0.5829","96.1266","1.8473","0.2009","0.0561","0.0322","0.0147","0.0063","0.0145"
"2024-04-16 00:00:00.0","1016.8434","-27.7891","1332.9310","1.4095","0.2656","0.5820","96.2368","1.7937","0.1858","0.0451","0.0302","0.0138","0.0059","0.0136"
"2024-04-15 00:00:00.0","1016.9597","-26.4200","1333.1381","1.4074","0.2574","0.5819","96.2459","1.7959","0.1862","0.0428","0.0303","0.0138","0.0059","0.0145"
"2024-04-14 00:00:00.0","1017.4367","-24.6784","1333.3975","1.4070","0.2591","0.5822","96.2136","1.8107","0.1881","0.0555","0.0305","0.0140","0.0059","0.0156"
"2024-04-13 00:00:00.0","1017.5236","-20.6954","1332.6952","1.4329","0.2818","0.5830","96.1049","1.8636","0.1965","0.0474","0.0324","0.0153","0.0066","0.0186"
"2024-04-12 00:00:00.0","1017.4472","-19.8342","1332.2719","1.4258","0.3236","0.5832","96.0614","1.8588","0.1981","0.0571","0.0333","0.0157","0.0069","0.0192"
"2024-04-11 00:00:00.0","1016.8992","-22.5629","1331.5328","1.4582","0.3092","0.5833","96.0661","1.8489","0.1906","0.0582","0.0311","0.0143","0.0062","0.0173"
"2024-04-10 00:00:00.0","1016.5423","-27.1473","1330.9883","1.5009","0.2724","0.5833","96.0607","1.8622","0.1934","0.0455","0.0309","0.0139","0.0059","0.0141"
"2024-04-09 00:00:00.0","1016.2802","-29.5300","1331.5960","1.4526","0.2831","0.5825","96.1679","1.8034","0.1808","0.0517","0.0291","0.0131","0.0056","0.0126"
"2024-04-08 00:00:00.0","1016.8812","-28.8891","1332.4018","1.4277","0.2832","0.5825","96.1635","1.8223","0.1856","0.0558","0.0298","0.0133","0.0057","0.0129"
"2024-04-07 00:00:00.0","1016.4034","-28.8517","1332.2147","1.4294","0.2733","0.5821","96.2180","1.7904","0.1842","0.0434","0.0295","0.0131","0.0056","0.0130"
"2024-04-06 00:00:00.0","1016.6587","-26.8904","1332.7304","1.4058","0.2788","0.5819","96.2527","1.7622","0.1843","0.0537","0.0294","0.0132","0.0056","0.0142"
"2024-04-05 00:00:00.0","1016.5681","-25.7343","1332.4578","1.4129","0.2860","0.5821","96.2434","1.7516","0.1860","0.0560","0.0300","0.0134","0.0058","0.0150"
"2024-04-04 00:00:00.0","1015.8263","-25.3546","1331.9724","1.4151","0.2873","0.5816","96.2906","1.7257","0.1781","0.0410","0.0285","0.0127","0.0055","0.0153"
"2024-04-03 00:00:00.0","1015.3247","-26.2384","1331.0970","1.4293","0.3139","0.5818","96.2544","1.7237","0.1782","0.0393","0.0285","0.0125","0.0054","0.0147"
"2024-04-02 00:00:00.0","1014.9360","-34.9320","1330.6454","1.4575","0.2898","0.5818","96.2749","1.7051","0.1775","0.0387","0.0281","0.0123","0.0052","0.0110"
"2024-04-01 00:00:00.0","1015.2137","-36.3603","1331.2146","1.4117","0.3260","0.5816","96.2468","1.7508","0.1688","0.0458","0.0254","0.0108","0.0046","0.0093"
"2024-03-31 00:00:00.0","1015.3163","-33.4636","1330.9337","1.4466","0.3006","0.5820","96.2399","1.7329","0.1744","0.0519","0.0266","0.0116","0.0049","0.0105"
"2024-03-30 00:00:00.0","1015.7544","-29.6567","1331.0629","1.4590","0.2920","0.5824","96.2006","1.7548","0.1810","0.0546","0.0280","0.0123","0.0052","0.0127"
"2024-03-29 00:00:00.0","1015.3329","-27.7348","1330.5904","1.4435","0.3347","0.5823","96.1668","1.7772","0.1790","0.0405","0.0276","0.0119","0.0051","0.0139"
"2024-03-28 00:00:00.0","1015.7213","-26.8815","1331.3290","1.4317","0.3101","0.5821","96.2088","1.7699","0.1741","0.0481","0.0265","0.0115","0.0049","0.0144"
"2024-03-27 00:00:00.0","1016.0019","-26.5218","1331.6483","1.4720","0.2358","0.5821","96.2644","1.7369","0.1855","0.0439","0.0291","0.0125","0.0052","0.0145"
"2024-03-26 00:00:00.0","1015.5394","-29.5993","1331.3610","1.4664","0.2458","0.5818","96.3121","1.6857","0.1805","0.0515","0.0281","0.0121","0.0051","0.0127"
"2024-03-25 00:00:00.0","1015.1930","-30.6674","1331.6994","1.4289","0.2586","0.5811","96.3832","1.6577","0.1740","0.0414","0.0272","0.0117","0.0051","0.0121"
"2024-03-24 00:00:00.0","1015.0781","-29.0950","1331.4123","1.4327","0.2710","0.5813","96.3560","1.6721","0.1741","0.0374","0.0271","0.0116","0.0049","0.0130"
"2024-03-23 00:00:00.0","1015.8025","-28.9045","1332.3906","1.3984","0.2773","0.5812","96.3436","1.7046","0.1722","0.0479","0.0266","0.0114","0.0049","0.0130"
"2024-03-22 00:00:00.0","1015.9349","-29.1394","1331.5203","1.4547","0.2696","0.5822","96.2337","1.7527","0.1782","0.0542","0.0272","0.0117","0.0050","0.0129"
"2024-03-21 00:00:00.0","1016.2950","-28.0328","1331.8367","1.4433","0.2781","0.5823","96.1902","1.8013","0.1786","0.0509","0.0272","0.0117","0.0051","0.0135"
"2024-03-20 00:00:00.0","1016.2474","-25.8256","1331.4277","1.4770","0.2582","0.5826","96.1851","1.7824","0.1829","0.0537","0.0283","0.0123","0.0052","0.0150"
"2024-03-19 00:00:00.0","1016.1266","-23.8647","1331.3754","1.5013","0.2195","0.5825","96.2475","1.7286","0.1848","0.0557","0.0287","0.0125","0.0052","0.0162"
"2024-03-18 00:00:00.0","1017.0461","-26.5322","1332.1073","1.4682","0.2537","0.5829","96.1262","1.8432","0.1898","0.0570","0.0297","0.0125","0.0052","0.0145"
"2024-03-17 00:00:00.0","1016.4236","-30.9588","1332.1377","1.4630","0.2294","0.5822","96.2480","1.7647","0.1827","0.0551","0.0282","0.0120","0.0050","0.0118"
"2024-03-16 00:00:00.0","1015.6943","-30.8524","1331.0061","1.4916","0.2444","0.5823","96.2249","1.7518","0.1858","0.0429","0.0291","0.0124","0.0051","0.0120"
"2024-03-15 00:00:00.0","1015.6228","-32.3460","1331.0800","1.4776","0.2561","0.5822","96.2405","1.7396","0.1798","0.0502","0.0280","0.0120","0.0050","0.0111"
"2024-03-14 00:00:00.0","1015.3000","-37.4559","1331.3934","1.4622","0.2385","0.5815","96.3281","1.6999","0.1774","0.0403","0.0276","0.0117","0.0050","0.0094"
"2024-03-13 00:00:00.0","1014.8210","-40.6111","1331.4250","1.4490","0.2336","0.5810","96.3653","1.7149","0.1744","0.0112","0.0269","0.0115","0.0049","0.0084"
"2024-03-12 00:00:00.0","1015.6867","-45.9320","1330.8090","1.4817","0.2756","0.5825","96.1575","1.8036","0.1856","0.0390","0.0315","0.0114","0.0046","0.0095"
"2024-03-11 00:00:00.0","1015.1934","-93.7554","1330.6451","1.4967","0.2427","0.5821","96.2262","1.7559","0.1926","0.0404","0.0287","0.0117","0.0051","0.0000"
"2024-03-10 00:00:00.0","1015.0098","-93.3312","1330.0167","1.5242","0.2439","0.5824","96.1860","1.7644","0.1963","0.0367","0.0311","0.0122","0.0051","0.0000"
"2024-03-09 00:00:00.0","1014.5622","-92.7065","1329.4261","1.5669","0.2061","0.5824","96.2442","1.6965","0.1955","0.0409","0.0320","0.0126","0.0053","0.0000"
"2024-03-08 00:00:00.0","1015.5240","-91.9994","1330.8748","1.5283","0.1914","0.5822","96.2612","1.7209","0.2008","0.0476","0.0317","0.0128","0.0054","0.0000"
"2024-03-07 00:00:00.0","1015.8279","-89.3122","1331.6768","1.4596","0.2445","0.5819","96.2408","1.7680","0.1950","0.0452","0.0292","0.0122","0.0053","0.0002"
"2024-03-06 00:00:00.0","1015.3777","-90.1850","1330.9114","1.4922","0.2364","0.5820","96.2360","1.7520","0.1945","0.0420","0.0291","0.0123","0.0053","0.0002"
"2024-03-05 00:00:00.0","1014.9845","-90.4378","1331.3070","1.4575","0.2379","0.5812","96.3422","1.6961","0.1819","0.0399","0.0280","0.0114","0.0048","0.0002"
"2024-03-04 00:00:00.0","1014.9409","-92.8096","1331.3331","1.4492","0.2462","0.5812","96.3444","1.6968","0.1788","0.0407","0.0275","0.0113","0.0050","0.0001"
"2024-03-03 00:00:00.0","1015.2445","-89.1212","1331.2564","1.4608","0.2496","0.5816","96.2767","1.7461","0.1808","0.0414","0.0275","0.0118","0.0052","0.0004"
"2024-03-02 00:00:00.0","1014.6615","-90.5331","1330.4541","1.4854","0.2503","0.5816","96.2705","1.7416","0.1732","0.0377","0.0258","0.0106","0.0045","0.0003"
"2024-03-01 00:00:00.0","1013.9763","-98.3576","1330.1064","1.4758","0.2611","0.5811","96.3144","1.7212","0.1651","0.0234","0.0254","0.0096","0.0040","0.0000"
"2024-02-29 00:00:00.0","1014.0423","-98.0657","1330.3608","1.4681","0.2550","0.5810","96.3358","1.7152","0.1650","0.0211","0.0254","0.0101","0.0044","0.0000"
"2024-02-28 00:00:00.0","1014.5693","-93.1300","1329.6950","1.5671","0.1843","0.5822","96.2450","1.7487","0.1799","0.0321","0.0273","0.0109","0.0046","0.0001"
"2024-02-27 00:00:00.0","1014.9607","-89.6313","1330.3310","1.5107","0.2365","0.5821","96.2043","1.7953","0.1760","0.0361","0.0257","0.0104","0.0045","0.0005"
"2024-02-26 00:00:00.0","1015.5551","-91.4056","1331.5208","1.4320","0.2868","0.5817","96.1850","1.8475","0.1738","0.0351","0.0250","0.0101","0.0044","0.0003"
"2024-02-25 00:00:00.0","1016.9934","-91.0484","1332.6285","1.3949","0.3210","0.5824","96.0086","2.0189","0.1861","0.0285","0.0265","0.0106","0.0047","0.0003"
"2024-02-24 00:00:00.0","1019.7615","-94.0570","1335.7665","1.3325","0.2900","0.5828","95.8815","2.2210","0.2056","0.0238","0.0297","0.0110","0.0050","0.0000"
"2024-02-23 00:00:00.0","1014.9110","-96.3398","1331.1146","1.4622","0.2435","0.5813","96.2760","1.7827","0.1710","0.0242","0.0256","0.0102","0.0045","0.0000"
"2024-02-22 00:00:00.0","1015.0051","-92.6969","1331.4582","1.4618","0.2203","0.5811","96.3136","1.7724","0.1689","0.0237","0.0249","0.0099","0.0043","0.0002"
"2024-02-21 00:00:00.0","1015.3058","-95.1532","1331.2946","1.4705","0.2352","0.5816","96.2133","1.8494","0.1748","0.0168","0.0256","0.0100","0.0043","0.0001"
"2024-02-20 00:00:00.0","1016.1788","-95.4435","1332.1672","1.4543","0.2298","0.5819","96.1688","1.9025","0.1818","0.0206","0.0270","0.0106","0.0045","0.0000"
"2024-02-19 00:00:00.0","1015.5698","-97.1012","1331.4293","1.4771","0.2266","0.5818","96.1942","1.8618","0.1806","0.0191","0.0264","0.0099","0.0042","0.0000"
"2024-02-18 00:00:00.0","1015.9974","-97.1469","1331.4381","1.4785","0.2444","0.5823","96.0899","1.9479","0.1832","0.0144","0.0274","0.0100","0.0043","0.0000"
"2024-02-17 00:00:00.0","1017.8917","-92.2708","1333.2924","1.4198","0.2716","0.5829","95.9484","2.1015","0.1904","0.0242","0.0283","0.0108","0.0050","0.0000"
"2024-02-16 00:00:00.0","1014.6091","-95.5038","1330.2355","1.4908","0.2581","0.5818","96.2004","1.8220","0.1723","0.0156","0.0262","0.0101","0.0043","0.0000"
"2024-02-15 00:00:00.0","1015.8744","-95.3679","1331.4679","1.4704","0.2484","0.5821","96.1263","1.9078","0.1898","0.0128","0.0285","0.0113","0.0048","0.0000"
"2024-02-14 00:00:00.0","1015.6432","-95.7133","1331.2812","1.4833","0.2330","0.5820","96.1634","1.8745","0.1859","0.0155","0.0282","0.0114","0.0048","0.0000"
"2024-02-13 00:00:00.0","1015.2758","-96.5440","1330.8733","1.5051","0.2158","0.5820","96.1979","1.8381","0.1827","0.0171","0.0280","0.0109","0.0045","0.0000"
"2024-02-12 00:00:00.0","1015.0367","-97.7636","1331.1966","1.4626","0.2424","0.5814","96.2459","1.8184","0.1776","0.0107","0.0275","0.0106","0.0044","0.0000"
"2024-02-11 00:00:00.0","1015.6515","-95.6186","1331.0643","1.4873","0.2452","0.5822","96.1200","1.9040","0.1863","0.0127","0.0281","0.0115","0.0049","0.0000"
"2024-02-10 00:00:00.0","1016.4441","-94.4781","1331.8714","1.4818","0.2249","0.5824","96.0986","1.9376","0.1923","0.0175","0.0297","0.0124","0.0053","0.0000"
"2024-02-09 00:00:00.0","1016.7317","-90.7018","1332.4363","1.4597","0.2258","0.5823","96.1056","1.9548","0.1910","0.0163","0.0290","0.0121","0.0053","0.0002"
"2024-02-08 00:00:00.0","1016.3292","-95.3246","1332.3446","1.4609","0.2124","0.5819","96.1720","1.9103","0.1856","0.0131","0.0288","0.0118","0.0051","0.0000"
"2024-02-07 00:00:00.0","1017.2187","-92.4313","1332.5219","1.4715","0.2241","0.5827","96.0445","1.9863","0.2044","0.0197","0.0315","0.0127","0.0053","0.0000"
"2024-02-06 00:00:00.0","1016.8224","-91.9703","1332.1996","1.4896","0.2038","0.5826","96.1208","1.9016","0.2070","0.0237","0.0338","0.0137","0.0059","0.0000"
"2024-02-05 00:00:00.0","1016.1495","-94.3970","1332.1013","1.4673","0.2138","0.5819","96.2014","1.8577","0.1930","0.0178","0.0310","0.0128","0.0053","0.0000"
"2024-02-04 00:00:00.0","1016.3223","-91.9531","1332.5203","1.4265","0.2498","0.5817","96.1711","1.9062","0.1838","0.0181","0.0281","0.0113","0.0048","0.0002"
"2024-02-03 00:00:00.0","1016.6819","-96.1482","1333.3156","1.3848","0.2652","0.5814","96.1666","1.9490","0.1788","0.0116","0.0274","0.0115","0.0051","0.0000"
"2024-02-02 00:00:00.0","1016.9222","-94.2865","1333.0065","1.3970","0.2835","0.5820","96.0750","2.0026","0.1817","0.0182","0.0266","0.0107","0.0046","0.0000"
